User: anonymous   Login
Location: Unspecified
(0.0000°N, 0.0000°E)
Time: 02:06:41
(UTC+00:00)
Language:

LAPAN-TUBSAT - Orbit

View from above orbital plane
View from above orbital plane
View from above satellite
View from above satellite

Ground track
Ground track

The orbit data is extracted from the following two-line orbital elements,

1 29709U 07001A   18055.49301802  .00000040  00000-0  11412-4 0  9998
2 29709  97.7395  26.4251 0013063 354.9173   5.1914 14.82110298601355
Epoch (UTC): 24 February 2018 11:49:56
Eccentricity: 0.0013063
inclination: 97.7395°
perigee height: 613 km
apogee height: 632 km
right ascension of ascending node: 26.4251°
argument of perigee: 354.9173°
revolutions per day: 14.82110298
mean anomaly at epoch: 5.1914°
orbit number at epoch: 60135

The dashed part of the orbit path shows where the satellite is in the earth's shadow,  

DLR